Home   Weather   East Fairfield   Past weeks
Flag for USA

Past Weather in East Fairfield, Vermont, USA — Yesterday and Last 2 Weeks

Now
68 °F

Scattered clouds.


Feels Like: 68 °F
Forecast: 66 / 50 °F
Wind: 9 mph from Northwest

Location: Burlington International Airport
Current Time: Oct 1, 2020 at 4:13:21 pm
Latest Report: Oct 1, 2020 at 2:54 pm
Visibility: 10 mi
Pressure29.83 "Hg
Humidity: 44%
Dew Point: 45 °F
Location of East FairfieldLocation

Past Weather in East Fairfield — Graph

°F

East Fairfield Temperature Yesterday

Maximum temperature yesterday: 65 °F (at 1:54 pm)
Minimum temperature yesterday: 55 °F (at 5:54 am)
Average temperature yesterday: 58 °F

High & Low Weather Summary for the Past Weeks

 TemperatureHumidityPressure
High81 °F (Sep 26, 1:54 pm)93% (Sep 30, 5:54 am)30.65 "Hg (Sep 30, 5:54 am)
Low34 °F (Sep 21, 6:54 am)21% (Sep 21, 3:54 pm)29.42 "Hg (Sep 30, 7:54 am)
Average59 °F67%30.01 "Hg
* Reported Sep 16 2:54 pm — Oct 1 2:54 pm, East Fairfield. Weather by CustomWeather, © 2020

Note: Actual official high and low records may vary slightly from our data, if they occured in-between our weather recording intervals... More about our weather records

East Fairfield Weather History for the Previous 24 Hours

Scroll right to see more
 ConditionsComfort  
Time TempWeatherWind HumidityBarometerVisibility
2:54 pm
Thu, Oct 1
68 °FScattered clouds.9 mph44%29.83 "Hg10 mi
1:54 pm66 °FPartly sunny.12 mph47%29.83 "Hg10 mi
12:54 pm64 °FPartly sunny.13 mph50%29.82 "Hg10 mi
11:54 am67 °FPartly sunny.10 mph47%29.80 "Hg10 mi
10:54 am66 °FScattered clouds.10 mph49%29.80 "Hg10 mi
9:54 am63 °FScattered clouds.13 mph56%29.78 "Hg10 mi
8:54 am61 °FScattered clouds.14 mph60%29.77 "Hg10 mi
7:54 am57 °FPassing clouds.8 mph69%29.76 "Hg10 mi
6:54 am56 °FPassing clouds.10 mph70%29.73 "Hg10 mi
5:54 am57 °FOvercast.12 mph67%29.73 "Hg10 mi
4:54 am58 °FPassing clouds.15 mph65%29.70 "Hg10 mi
3:54 am59 °FOvercast.12 mph60%29.71 "Hg10 mi
2:54 am59 °FOvercast.13 mph60%29.71 "Hg10 mi
1:54 am59 °FMostly cloudy.14 mph58%29.71 "Hg10 mi
12:54 am59 °FPartly cloudy.10 mph58%29.69 "Hg10 mi
11:54 pm
Wed, Sep 30
59 °FPassing clouds.12 mph60%29.69 "Hg10 mi
10:54 pm58 °FPassing clouds.12 mph65%29.69 "Hg10 mi
9:54 pm58 °FPassing clouds.10 mph65%29.69 "Hg10 mi
8:54 pm59 °FPassing clouds.7 mph60%29.69 "Hg10 mi
7:54 pm61 °FPassing clouds.8 mph56%29.67 "Hg10 mi
6:54 pm63 °FPassing clouds.10 mph48%29.65 "Hg10 mi
5:54 pm63 °FPartly sunny.8 mph50%29.62 "Hg10 mi
4:54 pm64 °FPartly sunny.9 mph50%29.59 "Hg10 mi
Weather by CustomWeather, © 2020

See weather overview